Time,TemperatureF,DewpointF,PressureIn,WindDirection,WindDirectionDegrees,WindSpeedMPH,WindSpeedGustMPH,Humidity,HourlyPrecipIn,Conditions,Clouds,dailyrainin,SoftwareType,DateUTC
2013-12-19 00:03:00,-999.0,-99.9,30.09,West,272,12.0,17.0,-999,-99.99,,,-99.99,,2013-12-19 05:03:00,
2013-12-19 00:12:00,-999.0,-99.9,30.09,West,269,11.0,17.0,-999,-99.99,,,-99.99,,2013-12-19 05:12:00,
2013-12-19 00:22:00,-999.0,-99.9,30.09,West,272,12.0,15.0,-999,-99.99,,,-99.99,,2013-12-19 05:22:00,
2013-12-19 00:33:00,-999.0,-99.9,30.09,West,271,13.0,18.0,-999,-99.99,,,-99.99,,2013-12-19 05:33:00,
2013-12-19 00:42:00,-999.0,-99.9,30.09,West,270,10.0,16.0,-999,-99.99,,,-99.99,,2013-12-19 05:42:00,
2013-12-19 00:52:00,-999.0,-99.9,30.09,West,269,9.0,16.0,-999,-99.99,,,-99.99,,2013-12-19 05:52:00,
2013-12-19 01:12:00,-999.0,-99.9,30.08,West,273,10.0,13.0,-999,-99.99,,,-99.99,,2013-12-19 06:12:00,
2013-12-19 01:32:00,-999.0,-99.9,30.09,WSW,254,11.0,14.0,-999,-99.99,,,-99.99,,2013-12-19 06:32:00,
2013-12-19 01:42:00,-999.0,-99.9,30.09,WSW,253,9.0,12.0,-999,-99.99,,,-99.99,,2013-12-19 06:42:00,
2013-12-19 01:52:00,-999.0,-99.9,30.10,WSW,248,9.0,14.0,-999,-99.99,,,-99.99,,2013-12-19 06:52:00,
2013-12-19 02:12:00,-999.0,-99.9,30.10,WSW,254,11.0,15.0,-999,-99.99,,,-99.99,,2013-12-19 07:12:00,
2013-12-19 02:42:00,-999.0,-99.9,30.11,West,270,11.0,15.0,-999,-99.99,,,-99.99,,2013-12-19 07:42:00,
2013-12-19 02:52:00,-999.0,-99.9,30.11,West,280,13.0,16.0,-999,-99.99,,,-99.99,,2013-12-19 07:52:00,
2013-12-19 03:02:00,-999.0,-99.9,30.12,West,263,10.0,15.0,-999,-99.99,,,-99.99,,2013-12-19 08:02:00,
2013-12-19 03:11:00,-999.0,-99.9,30.12,West,265,9.0,16.0,-999,-99.99,,,-99.99,,2013-12-19 08:11:00,
2013-12-19 03:22:00,-999.0,-99.9,30.11,West,264,8.0,12.0,-999,-99.99,,,-99.99,,2013-12-19 08:22:00,
2013-12-19 03:32:00,-999.0,-99.9,30.10,West,260,8.0,12.0,-999,-99.99,,,-99.99,,2013-12-19 08:32:00,
2013-12-19 03:42:00,-999.0,-99.9,30.09,West,260,9.0,13.0,-999,-99.99,,,-99.99,,2013-12-19 08:42:00,
2013-12-19 04:11:00,-999.0,-99.9,30.09,West,266,8.0,12.0,-999,-99.99,,,-99.99,,2013-12-19 09:11:00,
2013-12-19 04:22:00,-999.0,-99.9,30.09,West,275,9.0,16.0,-999,-99.99,,,-99.99,,2013-12-19 09:22:00,
2013-12-19 04:33:00,-999.0,-99.9,30.09,West,270,10.0,14.0,-999,-99.99,,,-99.99,,2013-12-19 09:33:00,
2013-12-19 04:43:00,-999.0,-99.9,30.10,West,274,13.0,16.0,-999,-99.99,,,-99.99,,2013-12-19 09:43:00,
2013-12-19 04:54:00,-999.0,-99.9,30.09,West,260,9.0,16.0,-999,-99.99,,,-99.99,,2013-12-19 09:54:00,
2013-12-19 05:03:00,-999.0,-99.9,30.09,West,267,8.0,16.0,-999,-99.99,,,-99.99,,2013-12-19 10:03:00,
2013-12-19 05:12:00,-999.0,-99.9,30.09,West,264,7.0,14.0,-999,-99.99,,,-99.99,,2013-12-19 10:12:00,
2013-12-19 05:23:00,-999.0,-99.9,30.09,West,264,8.0,13.0,-999,-99.99,,,-99.99,,2013-12-19 10:23:00,
2013-12-19 05:43:00,-999.0,-99.9,30.10,West,275,9.0,13.0,-999,-99.99,,,-99.99,,2013-12-19 10:43:00,
2013-12-19 06:03:00,-999.0,-99.9,30.10,West,272,9.0,12.0,-999,-99.99,,,-99.99,,2013-12-19 11:03:00,
2013-12-19 06:12:00,-999.0,-99.9,30.11,West,277,10.0,13.0,-999,-99.99,,,-99.99,,2013-12-19 11:12:00,
2013-12-19 06:22:00,-999.0,-99.9,30.11,West,268,5.0,11.0,-999,-99.99,,,-99.99,,2013-12-19 11:22:00,
2013-12-19 06:33:00,-999.0,-99.9,30.10,WSW,244,12.0,14.0,-999,-99.99,,,-99.99,,2013-12-19 11:33:00,
2013-12-19 06:42:00,-999.0,-99.9,30.10,WSW,249,10.0,14.0,-999,-99.99,,,-99.99,,2013-12-19 11:42:00,
2013-12-19 06:53:00,-999.0,-99.9,30.09,WSW,258,8.0,14.0,-999,-99.99,,,-99.99,,2013-12-19 11:53:00,
2013-12-19 07:02:00,-999.0,-99.9,30.09,WSW,246,11.0,14.0,-999,-99.99,,,-99.99,,2013-12-19 12:02:00,
2013-12-19 07:12:00,-999.0,-99.9,30.10,WSW,258,10.0,12.0,-999,-99.99,,,-99.99,,2013-12-19 12:12:00,
2013-12-19 07:32:00,-999.0,-99.9,30.10,WSW,256,13.0,18.0,-999,-99.99,,,-99.99,,2013-12-19 12:32:00,
2013-12-19 07:42:00,-999.0,-99.9,30.09,WSW,257,12.0,18.0,-999,-99.99,,,-99.99,,2013-12-19 12:42:00,
2013-12-19 07:52:00,-999.0,-99.9,30.09,West,260,11.0,17.0,-999,-99.99,,,-99.99,,2013-12-19 12:52:00,
2013-12-19 08:02:00,-999.0,-99.9,30.08,WSW,255,10.0,15.0,-999,-99.99,,,-99.99,,2013-12-19 13:02:00,
2013-12-19 08:11:00,-999.0,-99.9,30.08,WSW,244,15.0,18.0,-999,-99.99,,,-99.99,,2013-12-19 13:11:00,
2013-12-19 08:32:00,-999.0,-99.9,30.08,WSW,248,17.0,20.0,-999,-99.99,,,-99.99,,2013-12-19 13:32:00,
2013-12-19 08:42:00,-999.0,-99.9,30.08,WSW,249,16.0,20.0,-999,-99.99,,,-99.99,,2013-12-19 13:42:00,
2013-12-19 08:52:00,-999.0,-99.9,30.08,WSW,246,18.0,22.0,-999,-99.99,,,-99.99,,2013-12-19 13:52:00,
2013-12-19 09:12:00,-999.0,-99.9,30.09,WSW,244,19.0,23.0,-999,-99.99,,,-99.99,,2013-12-19 14:12:00,
2013-12-19 09:32:00,-999.0,-99.9,30.10,WSW,244,13.0,19.0,-999,-99.99,,,-99.99,,2013-12-19 14:32:00,
2013-12-19 09:42:00,-999.0,-99.9,30.10,WSW,237,14.0,17.0,-999,-99.99,,,-99.99,,2013-12-19 14:42:00,
2013-12-19 09:53:00,-999.0,-99.9,30.10,WSW,244,14.0,19.0,-999,-99.99,,,-99.99,,2013-12-19 14:53:00,
2013-12-19 10:02:00,-999.0,-99.9,30.09,WSW,237,20.0,24.0,-999,-99.99,,,-99.99,,2013-12-19 15:02:00,
2013-12-19 10:12:00,-999.0,-99.9,30.09,WSW,237,16.0,23.0,-999,-99.99,,,-99.99,,2013-12-19 15:12:00,
2013-12-19 10:22:00,-999.0,-99.9,30.09,SW,236,15.0,21.0,-999,-99.99,,,-99.99,,2013-12-19 15:22:00,
2013-12-19 10:43:00,-999.0,-99.9,30.08,SW,233,17.0,22.0,-999,-99.99,,,-99.99,,2013-12-19 15:43:00,
2013-12-19 11:03:00,-999.0,-99.9,30.06,SW,234,17.0,22.0,-999,-99.99,,,-99.99,,2013-12-19 16:03:00,
2013-12-19 11:13:00,-999.0,-99.9,30.06,SW,232,21.0,26.0,-999,-99.99,,,-99.99,,2013-12-19 16:13:00,
2013-12-19 11:23:00,-999.0,-99.9,30.06,SW,234,19.0,28.0,-999,-99.99,,,-99.99,,2013-12-19 16:23:00,
2013-12-19 11:43:00,-999.0,-99.9,30.04,SW,236,18.0,22.0,-999,-99.99,,,-99.99,,2013-12-19 16:43:00,
2013-12-19 12:02:00,-999.0,-99.9,30.03,SW,222,14.0,19.0,-999,-99.99,,,-99.99,,2013-12-19 17:02:00,
2013-12-19 12:12:00,-999.0,-99.9,30.01,SW,223,17.0,21.0,-999,-99.99,,,-99.99,,2013-12-19 17:12:00,
2013-12-19 12:22:00,-999.0,-99.9,30.01,SW,224,16.0,21.0,-999,-99.99,,,-99.99,,2013-12-19 17:22:00,
2013-12-19 12:42:00,-999.0,-99.9,30.00,SW,223,15.0,19.0,-999,-99.99,,,-99.99,,2013-12-19 17:42:00,
2013-12-19 12:53:00,-999.0,-99.9,29.99,SW,220,16.0,19.0,-999,-99.99,,,-99.99,,2013-12-19 17:53:00,
2013-12-19 13:12:00,-999.0,-99.9,29.98,SW,220,16.0,21.0,-999,-99.99,,,-99.99,,2013-12-19 18:12:00,
2013-12-19 13:32:00,-999.0,-99.9,29.97,SW,224,16.0,21.0,-999,-99.99,,,-99.99,,2013-12-19 18:32:00,
2013-12-19 13:42:00,-999.0,-99.9,29.97,SW,232,19.0,24.0,-999,-99.99,,,-99.99,,2013-12-19 18:42:00,
2013-12-19 14:11:00,-999.0,-99.9,29.96,SW,232,18.0,26.0,-999,-99.99,,,-99.99,,2013-12-19 19:11:00,
2013-12-19 14:22:00,-999.0,-99.9,29.96,SW,234,17.0,24.0,-999,-99.99,,,-99.99,,2013-12-19 19:22:00,
2013-12-19 14:32:00,-999.0,-99.9,29.96,WSW,240,20.0,28.0,-999,-99.99,,,-99.99,,2013-12-19 19:32:00,
2013-12-19 14:42:00,-999.0,-99.9,29.96,SW,231,16.0,22.0,-999,-99.99,,,-99.99,,2013-12-19 19:42:00,
2013-12-19 14:52:00,-999.0,-99.9,29.97,SW,229,15.0,19.0,-999,-99.99,,,-99.99,,2013-12-19 19:52:00,
2013-12-19 15:12:00,-999.0,-99.9,29.96,SW,229,12.0,16.0,-999,-99.99,,,-99.99,,2013-12-19 20:12:00,
2013-12-19 15:22:00,-999.0,-99.9,29.96,WSW,246,11.0,17.0,-999,-99.99,,,-99.99,,2013-12-19 20:22:00,
2013-12-19 15:42:00,-999.0,-99.9,29.97,WSW,244,13.0,17.0,-999,-99.99,,,-99.99,,2013-12-19 20:42:00,
2013-12-19 16:02:00,-999.0,-99.9,29.97,WSW,240,12.0,16.0,-999,-99.99,,,-99.99,,2013-12-19 21:02:00,
2013-12-19 16:11:00,-999.0,-99.9,29.97,WSW,238,12.0,15.0,-999,-99.99,,,-99.99,,2013-12-19 21:11:00,
2013-12-19 16:22:00,-999.0,-99.9,29.98,WSW,246,14.0,17.0,-999,-99.99,,,-99.99,,2013-12-19 21:22:00,
2013-12-19 16:33:00,-999.0,-99.9,29.98,WSW,242,13.0,16.0,-999,-99.99,,,-99.99,,2013-12-19 21:33:00,
2013-12-19 16:43:00,-999.0,-99.9,29.98,WSW,245,12.0,18.0,-999,-99.99,,,-99.99,,2013-12-19 21:43:00,
2013-12-19 16:53:00,-999.0,-99.9,29.99,WSW,247,10.0,15.0,-999,-99.99,,,-99.99,,2013-12-19 21:53:00,
2013-12-19 17:03:00,-999.0,-99.9,30.00,WSW,247,11.0,14.0,-999,-99.99,,,-99.99,,2013-12-19 22:03:00,
2013-12-19 17:13:00,-999.0,-99.9,30.00,WSW,245,11.0,14.0,-999,-99.99,,,-99.99,,2013-12-19 22:13:00,
2013-12-19 17:23:00,-999.0,-99.9,30.00,WSW,245,11.0,13.0,-999,-99.99,,,-99.99,,2013-12-19 22:23:00,
2013-12-19 17:33:00,-999.0,-99.9,30.01,WSW,248,10.0,12.0,-999,-99.99,,,-99.99,,2013-12-19 22:33:00,
2013-12-19 17:43:00,-999.0,-99.9,30.01,WSW,247,8.0,12.0,-999,-99.99,,,-99.99,,2013-12-19 22:43:00,
2013-12-19 18:13:00,-999.0,-99.9,30.02,WSW,240,10.0,12.0,-999,-99.99,,,-99.99,,2013-12-19 23:13:00,
2013-12-19 18:22:00,-999.0,-99.9,30.02,WSW,244,11.0,14.0,-999,-99.99,,,-99.99,,2013-12-19 23:22:00,
2013-12-19 18:33:00,-999.0,-99.9,30.03,WSW,244,12.0,14.0,-999,-99.99,,,-99.99,,2013-12-19 23:33:00,
2013-12-19 18:42:00,-999.0,-99.9,30.03,WSW,246,11.0,14.0,-999,-99.99,,,-99.99,,2013-12-19 23:42:00,
2013-12-19 18:53:00,-999.0,-99.9,30.03,WSW,244,11.0,14.0,-999,-99.99,,,-99.99,,2013-12-19 23:53:00,
2013-12-19 19:12:00,-999.0,-99.9,30.04,WSW,248,11.0,14.0,-999,-99.99,,,-99.99,,2013-12-20 00:12:00,
2013-12-19 19:42:00,-999.0,-99.9,30.05,WSW,251,9.0,12.0,-999,-99.99,,,-99.99,,2013-12-20 00:42:00,
2013-12-19 20:02:00,-999.0,-99.9,30.05,WSW,247,9.0,11.0,-999,-99.99,,,-99.99,,2013-12-20 01:02:00,
2013-12-19 20:12:00,-999.0,-99.9,30.06,WSW,239,7.0,11.0,-999,-99.99,,,-99.99,,2013-12-20 01:12:00,
2013-12-19 20:22:00,-999.0,-99.9,30.06,WSW,246,10.0,13.0,-999,-99.99,,,-99.99,,2013-12-20 01:22:00,
2013-12-19 20:32:00,-999.0,-99.9,30.06,WSW,246,9.0,13.0,-999,-99.99,,,-99.99,,2013-12-20 01:32:00,
2013-12-19 20:42:00,-999.0,-99.9,30.07,WSW,252,8.0,13.0,-999,-99.99,,,-99.99,,2013-12-20 01:42:00,
2013-12-19 20:52:00,-999.0,-99.9,30.07,West,263,9.0,11.0,-999,-99.99,,,-99.99,,2013-12-20 01:52:00,
2013-12-19 21:11:00,-999.0,-99.9,30.07,West,260,6.0,13.0,-999,-99.99,,,-99.99,,2013-12-20 02:11:00,
2013-12-19 21:22:00,-999.0,-99.9,30.08,West,264,7.0,14.0,-999,-99.99,,,-99.99,,2013-12-20 02:22:00,
2013-12-19 21:32:00,-999.0,-99.9,30.09,West,266,7.0,11.0,-999,-99.99,,,-99.99,,2013-12-20 02:32:00,
2013-12-19 21:42:00,-999.0,-99.9,30.09,West,262,6.0,11.0,-999,-99.99,,,-99.99,,2013-12-20 02:42:00,
2013-12-19 21:53:00,-999.0,-99.9,30.09,West,263,5.0,11.0,-999,-99.99,,,-99.99,,2013-12-20 02:53:00,
2013-12-19 22:02:00,-999.0,-99.9,30.09,West,261,5.0,7.0,-999,-99.99,,,-99.99,,2013-12-20 03:02:00,
2013-12-19 22:11:00,-999.0,-99.9,30.09,West,269,6.0,9.0,-999,-99.99,,,-99.99,,2013-12-20 03:11:00,
2013-12-19 22:34:00,-999.0,-99.9,30.09,West,277,5.0,7.0,-999,-99.99,,,-99.99,,2013-12-20 03:34:00,
2013-12-19 22:44:00,-999.0,-99.9,30.09,West,262,4.0,6.0,-999,-99.99,,,-99.99,,2013-12-20 03:44:00,
2013-12-19 22:53:00,-999.0,-99.9,30.09,WNW,288,2.0,4.0,-999,-99.99,,,-99.99,,2013-12-20 03:53:00,
2013-12-19 23:03:00,-999.0,-99.9,30.09,West,277,3.0,5.0,-999,-99.99,,,-99.99,,2013-12-20 04:03:00,
2013-12-19 23:13:00,-999.0,-99.9,30.09,SE,128,2.0,2.0,-999,-99.99,,,-99.99,,2013-12-20 04:13:00,
2013-12-19 23:33:00,-999.0,-99.9,30.09,North,11,2.0,3.0,-999,-99.99,,,-99.99,,2013-12-20 04:33:00,